Time,TemperatureF,DewpointF,PressureIn,WindDirection,WindDirectionDegrees,WindSpeedMPH,WindSpeedGustMPH,Humidity,HourlyPrecipIn,Conditions,Clouds,dailyrainin,SoftwareType,DateUTC
2013-01-16 00:05:00,31.5,29.4,30.45,North,11,1.1,1.1,92,0.00,CLR,,0.00,WeatherDisplay:10.37,2013-01-16 08:05:00,
2013-01-16 00:10:00,31.5,29.4,30.45,NNE,30,0.0,0.0,92,0.00,CLR,,0.00,WeatherDisplay:10.37,2013-01-16 08:10:00,
2013-01-16 00:15:00,31.4,29.3,30.45,WSW,256,0.0,0.0,92,0.00,CLR,,0.00,WeatherDisplay:10.37,2013-01-16 08:15:00,
2013-01-16 00:20:00,31.5,29.4,30.45,WSW,256,0.0,0.0,92,0.00,CLR,,0.00,WeatherDisplay:10.37,2013-01-16 08:20:00,
2013-01-16 00:25:00,31.7,29.9,30.46,WSW,256,0.0,0.0,93,0.00,CLR,,0.00,WeatherDisplay:10.37,2013-01-16 08:25:00,
2013-01-16 00:30:00,31.0,28.7,30.46,NE,53,3.5,3.5,91,0.00,CLR,,0.00,WeatherDisplay:10.37,2013-01-16 08:30:00,
2013-01-16 00:35:00,30.5,28.5,30.46,NE,41,2.3,2.3,92,0.00,CLR,,0.00,WeatherDisplay:10.37,2013-01-16 08:35:00,
2013-01-16 00:40:00,30.0,28.0,30.46,North,354,2.3,2.3,92,0.00,CLR,,0.00,WeatherDisplay:10.37,2013-01-16 08:40:00,
2013-01-16 00:46:00,30.1,28.3,30.46,North,353,1.1,1.1,93,0.00,CLR,,0.00,WeatherDisplay:10.37,2013-01-16 08:46:00,
2013-01-16 00:51:00,30.3,28.5,30.46,NW,319,1.1,1.1,93,0.00,CLR,,0.00,WeatherDisplay:10.37,2013-01-16 08:51:00,
2013-01-16 00:56:00,30.8,29.0,30.46,NW,319,0.0,0.0,93,0.00,CLR,,0.00,WeatherDisplay:10.37,2013-01-16 08:56:00,
2013-01-16 01:01:00,30.7,28.9,30.46,North,353,1.1,1.1,93,0.00,CLR,,0.00,WeatherDisplay:10.37,2013-01-16 09:01:00,
2013-01-16 01:07:00,30.6,28.8,30.46,North,353,0.0,0.0,93,0.00,CLR,,0.00,WeatherDisplay:10.37,2013-01-16 09:07:00,
2013-01-16 01:12:00,30.5,28.7,30.46,North,353,1.1,0.0,93,0.00,CLR,,0.00,WeatherDisplay:10.37,2013-01-16 09:12:00,
2013-01-16 01:17:00,31.0,29.2,30.46,North,353,1.1,0.0,93,0.00,CLR,,0.00,WeatherDisplay:10.37,2013-01-16 09:17:00,
2013-01-16 01:22:00,30.7,28.9,30.46,North,353,0.0,0.1,93,0.00,CLR,,0.00,WeatherDisplay:10.37,2013-01-16 09:22:00,
2013-01-16 01:28:00,30.7,28.9,30.46,North,353,0.0,0.0,93,0.00,CLR,,0.00,WeatherDisplay:10.37,2013-01-16 09:28:00,
2013-01-16 01:33:00,30.7,28.9,30.46,North,353,0.0,0.0,93,0.00,CLR,,0.00,WeatherDisplay:10.37,2013-01-16 09:33:00,
2013-01-16 01:38:00,30.7,28.9,30.47,North,353,0.0,0.0,93,0.00,CLR,,0.00,WeatherDisplay:10.37,2013-01-16 09:38:00,
2013-01-16 01:44:00,30.5,28.7,30.46,North,353,0.0,0.0,93,0.00,CLR,,0.00,WeatherDisplay:10.37,2013-01-16 09:44:00,
2013-01-16 01:49:00,30.4,28.6,30.46,North,353,0.0,0.0,93,0.00,CLR,,0.00,WeatherDisplay:10.37,2013-01-16 09:49:00,
2013-01-16 01:54:00,30.2,28.4,30.46,North,353,1.1,0.0,93,0.00,CLR,,0.00,WeatherDisplay:10.37,2013-01-16 09:54:00,
2013-01-16 01:59:00,30.7,29.2,30.46,North,353,0.0,0.1,94,0.00,CLR,,0.00,WeatherDisplay:10.37,2013-01-16 09:59:00,
2013-01-16 02:04:00,31.2,29.7,30.47,North,353,0.0,0.0,94,0.00,CLR,,0.00,WeatherDisplay:10.37,2013-01-16 10:04:00,
2013-01-16 02:10:00,31.0,29.2,30.46,North,353,0.0,0.0,93,0.00,CLR,,0.00,WeatherDisplay:10.37,2013-01-16 10:10:00,
2013-01-16 02:15:00,30.9,29.1,30.47,North,352,0.0,0.0,93,0.00,CLR,,0.00,WeatherDisplay:10.37,2013-01-16 10:15:00,
2013-01-16 02:20:00,30.7,28.9,30.46,North,353,0.0,0.0,93,0.00,CLR,,0.00,WeatherDisplay:10.37,2013-01-16 10:20:00,
2013-01-16 02:25:00,30.5,28.7,30.46,North,353,0.0,0.0,93,0.00,CLR,,0.00,WeatherDisplay:10.37,2013-01-16 10:25:00,
2013-01-16 02:30:00,29.6,27.6,30.46,North,353,0.0,0.0,92,0.00,CLR,,0.00,WeatherDisplay:10.37,2013-01-16 10:30:00,
2013-01-16 02:35:00,29.4,27.6,30.46,North,353,0.0,0.0,93,0.00,CLR,,0.00,WeatherDisplay:10.37,2013-01-16 10:35:00,
2013-01-16 02:40:00,29.3,27.5,30.46,North,353,0.0,0.0,93,0.00,CLR,,0.00,WeatherDisplay:10.37,2013-01-16 10:40:00,
2013-01-16 02:45:00,29.6,27.8,30.46,North,353,0.0,0.0,93,0.00,CLR,,0.00,WeatherDisplay:10.37,2013-01-16 10:45:00,
2013-01-16 02:50:00,29.4,27.6,30.46,NNE,29,0.0,0.0,93,0.00,CLR,,0.00,WeatherDisplay:10.37,2013-01-16 10:50:00,
2013-01-16 02:55:00,29.4,27.6,30.46,East,80,1.1,1.1,93,0.00,CLR,,0.00,WeatherDisplay:10.37,2013-01-16 10:55:00,
2013-01-16 03:00:00,29.3,27.5,30.46,East,80,0.0,0.0,93,0.00,CLR,,0.00,WeatherDisplay:10.37,2013-01-16 11:00:00,
2013-01-16 03:05:00,29.2,27.4,30.46,East,81,0.0,0.0,93,0.00,CLR,,0.00,WeatherDisplay:10.37,2013-01-16 11:05:00,
2013-01-16 03:11:00,29.4,27.9,30.46,East,80,0.0,0.0,94,0.00,CLR,,0.00,WeatherDisplay:10.37,2013-01-16 11:11:00,
2013-01-16 03:16:00,29.5,28.0,30.46,East,81,0.0,0.0,94,0.00,CLR,,0.00,WeatherDisplay:10.37,2013-01-16 11:16:00,
2013-01-16 03:21:00,29.6,28.1,30.46,East,81,0.0,0.0,94,0.00,CLR,,0.00,WeatherDisplay:10.37,2013-01-16 11:21:00,
2013-01-16 03:26:00,29.6,28.1,30.46,East,80,0.0,0.0,94,0.00,CLR,,0.00,WeatherDisplay:10.37,2013-01-16 11:26:00,
2013-01-16 03:31:00,29.6,28.1,30.46,East,80,1.0,1.0,94,0.00,CLR,,0.00,WeatherDisplay:10.37,2013-01-16 11:31:00,
2013-01-16 03:36:00,29.8,28.3,30.46,East,79,1.1,1.1,94,0.00,CLR,,0.00,WeatherDisplay:10.37,2013-01-16 11:36:00,
2013-01-16 03:42:00,30.0,28.5,30.46,ENE,78,1.1,1.1,94,0.00,CLR,,0.00,WeatherDisplay:10.37,2013-01-16 11:42:00,
2013-01-16 03:47:00,30.2,28.7,30.45,ENE,78,0.0,0.0,94,0.00,CLR,,0.00,WeatherDisplay:10.37,2013-01-16 11:47:00,
2013-01-16 03:52:00,30.2,28.7,30.45,ENE,77,0.0,0.0,94,0.00,CLR,,0.00,WeatherDisplay:10.37,2013-01-16 11:52:00,
2013-01-16 03:57:00,30.0,28.5,30.45,East,79,1.1,0.0,94,0.00,CLR,,0.00,WeatherDisplay:10.37,2013-01-16 11:57:00,
2013-01-16 04:03:00,30.0,28.5,30.45,East,79,0.0,0.0,94,0.00,CLR,,0.00,WeatherDisplay:10.37,2013-01-16 12:03:00,
2013-01-16 04:08:00,29.6,28.1,30.45,East,79,0.0,0.0,94,0.00,CLR,,0.00,WeatherDisplay:10.37,2013-01-16 12:08:00,
2013-01-16 04:13:00,29.3,27.8,30.45,East,90,0.0,0.0,94,0.00,CLR,,0.00,WeatherDisplay:10.37,2013-01-16 12:13:00,
2013-01-16 04:18:00,28.9,27.1,30.45,East,91,1.1,0.0,93,0.00,CLR,,0.00,WeatherDisplay:10.37,2013-01-16 12:18:00,
2013-01-16 04:23:00,28.8,27.3,30.45,East,91,1.1,0.0,94,0.00,CLR,,0.00,WeatherDisplay:10.37,2013-01-16 12:23:00,
2013-01-16 04:28:00,28.8,27.3,30.45,East,90,0.0,0.0,94,0.00,CLR,,0.00,WeatherDisplay:10.37,2013-01-16 12:28:00,
2013-01-16 04:33:00,28.7,27.2,30.45,East,91,0.0,0.0,94,0.00,CLR,,0.00,WeatherDisplay:10.37,2013-01-16 12:33:00,
2013-01-16 04:38:00,28.7,27.2,30.45,East,90,1.1,1.1,94,0.00,CLR,,0.00,WeatherDisplay:10.37,2013-01-16 12:38:00,
2013-01-16 04:43:00,28.8,27.3,30.45,NE,34,2.3,2.3,94,0.00,CLR,,0.00,WeatherDisplay:10.37,2013-01-16 12:43:00,
2013-01-16 04:48:00,28.7,27.2,30.44,NE,34,1.1,1.1,94,0.00,CLR,,0.00,WeatherDisplay:10.37,2013-01-16 12:48:00,
2013-01-16 04:53:00,28.7,27.2,30.44,NE,34,0.0,0.0,94,0.00,CLR,,0.00,WeatherDisplay:10.37,2013-01-16 12:53:00,
2013-01-16 04:58:00,29.0,27.5,30.44,NE,34,0.0,0.0,94,0.00,CLR,,0.00,WeatherDisplay:10.37,2013-01-16 12:58:00,
2013-01-16 05:04:00,29.1,27.6,30.44,NE,34,0.0,0.0,94,0.00,CLR,,0.00,WeatherDisplay:10.37,2013-01-16 13:04:00,
2013-01-16 05:09:00,28.7,27.2,30.44,NE,34,1.1,0.0,94,0.00,CLR,,0.00,WeatherDisplay:10.37,2013-01-16 13:09:00,
2013-01-16 05:14:00,29.6,28.3,30.44,NNE,15,0.0,0.0,95,0.00,CLR,,0.00,WeatherDisplay:10.37,2013-01-16 13:14:00,
2013-01-16 05:19:00,29.9,28.6,30.43,NNW,333,0.0,0.0,95,0.00,CLR,,0.00,WeatherDisplay:10.37,2013-01-16 13:19:00,
2013-01-16 05:24:00,29.4,27.9,30.43,NNW,333,0.0,0.0,94,0.00,CLR,,0.00,WeatherDisplay:10.37,2013-01-16 13:24:00,
2013-01-16 05:30:00,28.7,27.2,30.43,NNW,333,0.0,0.0,94,0.00,CLR,,0.00,WeatherDisplay:10.37,2013-01-16 13:30:00,
2013-01-16 05:35:00,28.3,26.8,30.43,NNW,333,0.0,0.0,94,0.00,CLR,,0.00,WeatherDisplay:10.37,2013-01-16 13:35:00,
2013-01-16 05:40:00,28.3,26.8,30.43,NNW,333,0.0,0.0,94,0.00,CLR,,0.00,WeatherDisplay:10.37,2013-01-16 13:40:00,
2013-01-16 05:45:00,27.9,26.4,30.43,North,4,0.0,0.0,94,0.00,CLR,,0.00,WeatherDisplay:10.37,2013-01-16 13:45:00,
2013-01-16 05:51:00,27.8,26.3,30.43,North,4,0.0,0.0,94,0.00,CLR,,0.00,WeatherDisplay:10.37,2013-01-16 13:51:00,
2013-01-16 05:56:00,28.0,26.5,30.42,East,81,0.0,0.0,94,0.00,CLR,,0.00,WeatherDisplay:10.37,2013-01-16 13:56:00,
2013-01-16 06:01:00,28.0,26.5,30.43,East,81,0.0,0.0,94,0.00,CLR,,0.00,WeatherDisplay:10.37,2013-01-16 14:01:00,
2013-01-16 06:06:00,28.3,26.8,30.43,ENE,70,0.0,0.0,94,0.00,CLR,,0.00,WeatherDisplay:10.37,2013-01-16 14:06:00,
2013-01-16 06:11:00,28.4,26.9,30.43,ENE,70,0.0,0.0,94,0.00,CLR,,0.00,WeatherDisplay:10.37,2013-01-16 14:11:00,
2013-01-16 06:16:00,28.6,27.1,30.43,ENE,70,0.0,0.0,94,0.00,CLR,,0.00,WeatherDisplay:10.37,2013-01-16 14:16:00,
2013-01-16 06:21:00,28.6,27.1,30.43,ENE,77,0.0,0.0,94,0.00,CLR,,0.00,WeatherDisplay:10.37,2013-01-16 14:21:00,
2013-01-16 06:26:00,28.3,26.8,30.43,ENE,72,0.0,0.0,94,0.00,CLR,,0.00,WeatherDisplay:10.37,2013-01-16 14:26:00,
2013-01-16 06:32:00,28.1,26.6,30.43,ENE,72,0.0,0.0,94,0.00,CLR,,0.00,WeatherDisplay:10.37,2013-01-16 14:32:00,
2013-01-16 06:37:00,28.0,26.5,30.43,ENE,72,0.0,0.0,94,0.00,CLR,,0.00,WeatherDisplay:10.37,2013-01-16 14:37:00,
2013-01-16 06:42:00,28.6,27.4,30.43,NNW,342,0.0,0.0,95,0.00,CLR,,0.00,WeatherDisplay:10.37,2013-01-16 14:42:00,
2013-01-16 06:47:00,28.7,27.4,30.43,NNW,342,0.0,0.0,95,0.00,CLR,,0.00,WeatherDisplay:10.37,2013-01-16 14:47:00,
2013-01-16 06:52:00,28.5,27.0,30.43,NNW,342,0.0,0.0,94,0.00,CLR,,0.00,WeatherDisplay:10.37,2013-01-16 14:52:00,
2013-01-16 06:58:00,28.1,26.6,30.43,NNW,342,0.0,0.0,94,0.00,CLR,,0.00,WeatherDisplay:10.37,2013-01-16 14:58:00,
2013-01-16 07:03:00,27.5,26.0,30.43,NNW,342,0.0,0.0,94,0.00,CLR,,0.00,WeatherDisplay:10.37,2013-01-16 15:03:00,
2013-01-16 07:08:00,27.3,25.8,30.43,NNW,342,0.0,0.0,94,0.00,CLR,,0.00,WeatherDisplay:10.37,2013-01-16 15:08:00,
2013-01-16 07:13:00,27.3,25.8,30.43,NNW,342,0.0,0.0,94,0.00,CLR,,0.00,WeatherDisplay:10.37,2013-01-16 15:13:00,
2013-01-16 07:18:00,27.4,25.9,30.43,NNE,26,1.1,0.0,94,0.00,CLR,,0.00,WeatherDisplay:10.37,2013-01-16 15:18:00,
2013-01-16 07:23:00,27.5,26.0,30.43,NNE,26,0.0,0.0,94,0.00,CLR,,0.00,WeatherDisplay:10.37,2013-01-16 15:23:00,
2013-01-16 07:28:00,27.7,26.2,30.44,NNE,26,0.0,0.0,94,0.00,CLR,,0.00,WeatherDisplay:10.37,2013-01-16 15:28:00,
2013-01-16 07:34:00,27.6,26.1,30.44,NNE,26,0.0,0.0,94,0.00,CLR,,0.00,WeatherDisplay:10.37,2013-01-16 15:34:00,
2013-01-16 07:39:00,27.5,26.0,30.44,NNE,25,0.0,0.0,94,0.00,CLR,,0.00,WeatherDisplay:10.37,2013-01-16 15:39:00,
2013-01-16 07:44:00,27.9,26.7,30.44,North,5,0.0,0.0,95,0.00,CLR,,0.00,WeatherDisplay:10.37,2013-01-16 15:44:00,
2013-01-16 07:49:00,28.1,26.9,30.44,NNW,338,0.0,0.0,95,0.00,CLR,,0.00,WeatherDisplay:10.37,2013-01-16 15:49:00,
2013-01-16 07:54:00,27.7,26.2,30.44,NNW,338,0.0,0.0,94,0.00,CLR,,0.00,WeatherDisplay:10.37,2013-01-16 15:54:00,
2013-01-16 07:59:00,27.9,26.7,30.44,NNW,338,0.0,0.0,95,0.00,CLR,,0.00,WeatherDisplay:10.37,2013-01-16 15:59:00,
2013-01-16 08:04:00,27.1,25.6,30.44,East,97,1.1,1.1,94,0.00,CLR,,0.00,WeatherDisplay:10.37,2013-01-16 16:04:00,
2013-01-16 08:09:00,27.4,25.9,30.44,NE,49,1.0,1.0,94,0.00,CLR,,0.00,WeatherDisplay:10.37,2013-01-16 16:09:00,
2013-01-16 08:14:00,27.9,26.4,30.44,NE,48,0.0,0.0,94,0.00,CLR,,0.00,WeatherDisplay:10.37,2013-01-16 16:14:00,
2013-01-16 08:20:00,28.2,27.0,30.44,NE,48,1.1,1.1,95,0.00,CLR,,0.00,WeatherDisplay:10.37,2013-01-16 16:20:00,
2013-01-16 08:25:00,28.5,27.3,30.44,ENE,71,0.0,0.0,95,0.00,CLR,,0.00,WeatherDisplay:10.37,2013-01-16 16:25:00,
2013-01-16 08:30:00,28.9,27.6,30.44,ENE,67,0.0,0.0,95,0.00,CLR,,0.00,WeatherDisplay:10.37,2013-01-16 16:30:00,
2013-01-16 08:35:00,29.4,28.1,30.44,NNE,19,0.0,0.0,95,0.00,CLR,,0.00,WeatherDisplay:10.37,2013-01-16 16:35:00,
2013-01-16 08:41:00,29.9,28.6,30.44,NE,43,2.3,2.3,95,0.00,CLR,,0.00,WeatherDisplay:10.37,2013-01-16 16:41:00,
2013-01-16 08:46:00,30.4,29.1,30.44,ENE,61,3.5,3.5,95,0.00,CLR,,0.00,WeatherDisplay:10.37,2013-01-16 16:46:00,
2013-01-16 08:51:00,31.0,29.7,30.44,NNE,28,3.5,3.5,95,0.00,CLR,,0.00,WeatherDisplay:10.37,2013-01-16 16:51:00,
2013-01-16 08:56:00,31.3,30.0,30.45,ENE,75,3.5,3.5,95,0.00,CLR,,0.00,WeatherDisplay:10.37,2013-01-16 16:56:00,
2013-01-16 09:01:00,31.7,30.2,30.45,North,9,3.5,3.5,94,0.00,CLR,,0.00,WeatherDisplay:10.37,2013-01-16 17:01:00,
2013-01-16 09:07:00,32.2,30.7,30.45,North,355,1.1,1.1,94,0.00,CLR,,0.00,WeatherDisplay:10.37,2013-01-16 17:07:00,
2013-01-16 09:12:00,32.7,31.2,30.45,North,8,1.1,1.1,94,0.00,CLR,,0.00,WeatherDisplay:10.37,2013-01-16 17:12:00,
2013-01-16 09:17:00,33.2,31.7,30.45,NNW,345,2.3,2.3,94,0.00,CLR,,0.00,WeatherDisplay:10.37,2013-01-16 17:17:00,
2013-01-16 09:22:00,33.7,32.2,30.45,NNE,27,2.3,2.3,94,0.00,CLR,,0.00,WeatherDisplay:10.37,2013-01-16 17:22:00,
2013-01-16 09:27:00,34.1,32.3,30.45,ENE,75,2.3,2.3,93,0.00,CLR,,0.00,WeatherDisplay:10.37,2013-01-16 17:27:00,
2013-01-16 09:33:00,34.7,32.9,30.45,NE,43,0.0,0.0,93,0.00,CLR,,0.00,WeatherDisplay:10.37,2013-01-16 17:33:00,
2013-01-16 09:38:00,35.2,33.1,30.45,ENE,76,3.5,3.5,92,0.00,CLR,,0.00,WeatherDisplay:10.37,2013-01-16 17:38:00,
2013-01-16 09:43:00,35.8,33.7,30.45,NNE,32,4.0,4.0,92,0.00,CLR,,0.00,WeatherDisplay:10.37,2013-01-16 17:43:00,
2013-01-16 09:48:00,36.2,33.8,30.44,NNE,15,3.5,3.5,91,0.00,CLR,,0.00,WeatherDisplay:10.37,2013-01-16 17:48:00,
2013-01-16 09:53:00,36.6,33.9,30.44,East,89,0.0,0.0,90,0.00,CLR,,0.00,WeatherDisplay:10.37,2013-01-16 17:53:00,
2013-01-16 09:58:00,37.0,34.3,30.44,NNE,22,1.1,1.1,90,0.00,CLR,,0.00,WeatherDisplay:10.37,2013-01-16 17:58:00,
2013-01-16 10:04:00,37.6,34.9,30.44,NE,34,2.3,2.3,90,0.00,CLR,,0.00,WeatherDisplay:10.37,2013-01-16 18:04:00,
2013-01-16 10:09:00,38.2,35.2,30.44,East,98,2.3,2.3,89,0.00,CLR,,0.00,WeatherDisplay:10.37,2013-01-16 18:09:00,
2013-01-16 10:14:00,38.8,35.3,30.44,NE,41,2.3,2.3,87,0.00,CLR,,0.00,WeatherDisplay:10.37,2013-01-16 18:14:00,
2013-01-16 10:19:00,39.5,35.7,30.43,NNE,27,0.0,0.0,86,0.00,CLR,,0.00,WeatherDisplay:10.37,2013-01-16 18:19:00,
2013-01-16 10:24:00,40.1,36.0,30.43,ENE,69,1.1,1.1,85,0.00,CLR,,0.00,WeatherDisplay:10.37,2013-01-16 18:24:00,
2013-01-16 10:29:00,40.9,36.1,30.43,NE,47,2.0,2.0,83,0.00,CLR,,0.00,WeatherDisplay:10.37,2013-01-16 18:29:00,
2013-01-16 10:34:00,41.5,36.1,30.43,NE,36,0.0,0.0,81,0.00,CLR,,0.00,WeatherDisplay:10.37,2013-01-16 18:34:00,
2013-01-16 10:39:00,42.2,36.5,30.42,NE,41,0.0,0.0,80,0.00,CLR,,0.00,WeatherDisplay:10.37,2013-01-16 18:39:00,
2013-01-16 10:45:00,43.0,36.6,30.42,NNE,28,0.0,0.0,78,0.00,CLR,,0.00,WeatherDisplay:10.37,2013-01-16 18:45:00,
2013-01-16 10:50:00,43.7,37.0,30.42,NNE,29,0.0,0.0,77,0.00,CLR,,0.00,WeatherDisplay:10.37,2013-01-16 18:50:00,
2013-01-16 10:55:00,44.6,36.8,30.42,NE,53,2.0,2.0,74,0.00,CLR,,0.00,WeatherDisplay:10.37,2013-01-16 18:55:00,
2013-01-16 11:00:00,45.2,37.4,30.41,ESE,110,1.1,0.0,74,0.00,CLR,,0.00,WeatherDisplay:10.37,2013-01-16 19:00:00,
2013-01-16 11:05:00,46.5,37.6,30.41,SSE,156,0.0,0.0,71,0.00,CLR,,0.00,WeatherDisplay:10.37,2013-01-16 19:05:00,
2013-01-16 11:10:00,47.8,37.4,30.41,South,173,0.0,0.0,67,0.00,CLR,,0.00,WeatherDisplay:10.37,2013-01-16 19:10:00,
2013-01-16 11:15:00,48.9,38.0,30.41,SSE,161,0.0,0.0,66,0.00,CLR,,0.00,WeatherDisplay:10.37,2013-01-16 19:15:00,
2013-01-16 11:20:00,49.9,38.2,30.40,SSE,160,0.0,0.0,64,0.00,CLR,,0.00,WeatherDisplay:10.37,2013-01-16 19:20:00,
2013-01-16 11:25:00,50.9,37.9,30.40,WSW,242,2.3,2.3,61,0.00,CLR,,0.00,WeatherDisplay:10.37,2013-01-16 19:25:00,
2013-01-16 11:30:00,51.3,37.9,30.40,SSE,150,2.3,2.3,60,0.00,CLR,,0.00,WeatherDisplay:10.37,2013-01-16 19:30:00,
2013-01-16 11:36:00,51.4,38.4,30.39,ENE,78,1.1,1.1,61,0.00,CLR,,0.00,WeatherDisplay:10.37,2013-01-16 19:36:00,
2013-01-16 11:41:00,51.9,37.6,30.39,South,170,2.3,2.3,58,0.00,CLR,,0.00,WeatherDisplay:10.37,2013-01-16 19:41:00,
2013-01-16 11:46:00,52.3,38.0,30.39,SSW,195,2.3,2.3,58,0.00,CLR,,0.00,WeatherDisplay:10.37,2013-01-16 19:46:00,
2013-01-16 11:51:00,53.1,37.8,30.38,SW,226,3.5,3.5,56,0.00,CLR,,0.00,WeatherDisplay:10.37,2013-01-16 19:51:00,
2013-01-16 11:57:00,53.6,38.3,30.38,SSE,158,2.0,2.0,56,0.00,CLR,,0.00,WeatherDisplay:10.37,2013-01-16 19:57:00,
2013-01-16 12:02:00,54.3,38.0,30.38,SSE,167,4.6,4.6,54,0.00,CLR,,0.00,WeatherDisplay:10.37,2013-01-16 20:02:00,
2013-01-16 12:07:00,54.4,37.6,30.37,SW,236,3.5,3.5,53,0.00,CLR,,0.00,WeatherDisplay:10.37,2013-01-16 20:07:00,
2013-01-16 12:12:00,54.8,38.5,30.37,SE,129,2.3,2.3,54,0.00,CLR,,0.00,WeatherDisplay:10.37,2013-01-16 20:12:00,
2013-01-16 12:18:00,55.2,38.4,30.36,SE,139,1.1,1.1,53,0.00,CLR,,0.00,WeatherDisplay:10.37,2013-01-16 20:18:00,
2013-01-16 12:23:00,55.3,37.5,30.36,South,169,2.3,2.3,51,0.00,CLR,,0.00,WeatherDisplay:10.37,2013-01-16 20:23:00,
2013-01-16 12:28:00,55.8,37.9,30.35,ESE,106,3.5,3.5,51,0.00,CLR,,0.00,WeatherDisplay:10.37,2013-01-16 20:28:00,
2013-01-16 12:34:00,56.0,38.1,30.35,SSE,148,1.1,1.1,51,0.00,CLR,,0.00,WeatherDisplay:10.37,2013-01-16 20:34:00,
2013-01-16 12:39:00,56.1,37.7,30.35,SSE,163,3.5,3.5,50,0.00,CLR,,0.00,WeatherDisplay:10.37,2013-01-16 20:39:00,
2013-01-16 12:44:00,56.1,37.7,30.34,ESE,105,2.3,2.3,50,0.00,CLR,,0.00,WeatherDisplay:10.37,2013-01-16 20:44:00,
2013-01-16 12:49:00,56.4,38.0,30.34,SSE,148,3.5,3.5,50,0.00,CLR,,0.00,WeatherDisplay:10.37,2013-01-16 20:49:00,
2013-01-16 12:54:00,56.5,37.6,30.34,ESE,113,3.5,3.5,49,0.00,CLR,,0.00,WeatherDisplay:10.37,2013-01-16 20:54:00,
2013-01-16 12:59:00,56.5,38.1,30.33,SE,131,2.3,2.3,50,0.00,CLR,,0.00,WeatherDisplay:10.37,2013-01-16 20:59:00,
2013-01-16 13:04:00,56.7,38.8,30.33,SE,142,2.3,2.3,51,0.00,CLR,,0.00,WeatherDisplay:10.37,2013-01-16 21:04:00,
2013-01-16 13:09:00,57.0,38.0,30.33,SSE,156,4.6,4.6,49,0.00,CLR,,0.00,WeatherDisplay:10.37,2013-01-16 21:09:00,
2013-01-16 13:14:00,57.3,38.8,30.33,East,100,3.5,3.5,50,0.00,CLR,,0.00,WeatherDisplay:10.37,2013-01-16 21:14:00,
2013-01-16 13:19:00,57.5,39.5,30.33,East,99,3.5,3.5,51,0.00,CLR,,0.00,WeatherDisplay:10.37,2013-01-16 21:19:00,
2013-01-16 13:24:00,57.5,38.5,30.32,SE,128,3.5,3.5,49,0.00,CLR,,0.00,WeatherDisplay:10.37,2013-01-16 21:24:00,
2013-01-16 13:29:00,57.8,39.3,30.32,ESE,117,2.3,2.3,50,0.00,CLR,,0.00,WeatherDisplay:10.37,2013-01-16 21:29:00,
2013-01-16 13:34:00,58.2,38.6,30.32,South,174,4.0,4.0,48,0.00,CLR,,0.00,WeatherDisplay:10.37,2013-01-16 21:34:00,
2013-01-16 13:39:00,58.4,39.3,30.31,SSE,165,2.0,2.0,49,0.00,CLR,,0.00,WeatherDisplay:10.37,2013-01-16 21:39:00,
2013-01-16 13:45:00,58.7,39.0,30.31,SE,127,3.5,3.5,48,0.00,CLR,,0.00,WeatherDisplay:10.37,2013-01-16 21:45:00,
2013-01-16 13:50:00,59.4,38.6,30.31,SSW,212,2.3,2.3,46,0.00,CLR,,0.00,WeatherDisplay:10.37,2013-01-16 21:50:00,
2013-01-16 13:55:00,59.8,40.1,30.31,SE,136,3.5,3.5,48,0.00,CLR,,0.00,WeatherDisplay:10.37,2013-01-16 21:55:00,
2013-01-16 14:00:00,60.2,39.3,30.31,SSE,157,1.1,1.1,46,0.00,CLR,,0.00,WeatherDisplay:10.37,2013-01-16 22:00:00,
2013-01-16 14:05:00,60.3,38.9,30.31,SSE,152,3.0,3.0,45,0.00,CLR,,0.00,WeatherDisplay:10.37,2013-01-16 22:05:00,
2013-01-16 14:11:00,60.4,38.4,30.30,SSW,193,4.6,4.6,44,0.00,CLR,,0.00,WeatherDisplay:10.37,2013-01-16 22:11:00,
2013-01-16 14:16:00,60.7,39.8,30.30,SSE,163,5.0,5.0,46,0.00,CLR,,0.00,WeatherDisplay:10.37,2013-01-16 22:16:00,
2013-01-16 14:21:00,60.5,38.5,30.30,South,176,3.5,3.5,44,0.00,CLR,,0.00,WeatherDisplay:10.37,2013-01-16 22:21:00,
2013-01-16 14:26:00,60.8,38.7,30.30,South,183,3.5,3.5,44,0.00,CLR,,0.00,WeatherDisplay:10.37,2013-01-16 22:26:00,
2013-01-16 14:31:00,61.2,39.1,30.30,SE,134,2.3,2.3,44,0.00,CLR,,0.00,WeatherDisplay:10.37,2013-01-16 22:31:00,
2013-01-16 14:36:00,60.4,38.4,30.30,SSE,154,3.5,3.5,44,0.00,CLR,,0.00,WeatherDisplay:10.37,2013-01-16 22:36:00,
2013-01-16 14:41:00,60.5,39.0,30.30,SE,134,3.5,3.5,45,0.00,CLR,,0.00,WeatherDisplay:10.37,2013-01-16 22:41:00,
2013-01-16 14:46:00,60.7,38.1,30.30,SSE,162,6.9,6.9,43,0.00,CLR,,0.00,WeatherDisplay:10.37,2013-01-16 22:46:00,
2013-01-16 14:51:00,60.7,38.6,30.30,ESE,114,2.3,2.3,44,0.00,CLR,,0.00,WeatherDisplay:10.37,2013-01-16 22:51:00,
2013-01-16 14:56:00,60.9,38.2,30.30,South,191,4.0,4.0,43,0.00,CLR,,0.00,WeatherDisplay:10.37,2013-01-16 22:56:00,
2013-01-16 15:01:00,61.4,38.7,30.30,SE,129,3.5,3.5,43,0.00,CLR,,0.00,WeatherDisplay:10.37,2013-01-16 23:01:00,
2013-01-16 15:06:00,61.1,37.8,30.30,South,179,6.0,6.0,42,0.00,CLR,,0.00,WeatherDisplay:10.37,2013-01-16 23:06:00,
2013-01-16 15:12:00,60.9,38.8,30.30,SE,144,4.0,4.0,44,0.00,CLR,,0.00,WeatherDisplay:10.37,2013-01-16 23:12:00,
2013-01-16 15:17:00,60.9,38.2,30.30,SSE,157,6.9,6.9,43,0.00,CLR,,0.00,WeatherDisplay:10.37,2013-01-16 23:17:00,
2013-01-16 15:22:00,60.7,38.6,30.30,SE,131,6.9,6.9,44,0.00,CLR,,0.00,WeatherDisplay:10.37,2013-01-16 23:22:00,
2013-01-16 15:27:00,60.7,38.6,30.30,ESE,116,3.5,3.5,44,0.00,CLR,,0.00,WeatherDisplay:10.37,2013-01-16 23:27:00,
2013-01-16 15:32:00,60.5,37.9,30.30,SE,146,6.9,6.9,43,0.00,CLR,,0.00,WeatherDisplay:10.37,2013-01-16 23:32:00,
2013-01-16 15:38:00,60.3,38.3,30.30,SE,136,3.5,3.5,44,0.00,CLR,,0.00,WeatherDisplay:10.37,2013-01-16 23:38:00,
2013-01-16 15:43:00,59.9,39.1,30.30,SSE,154,3.5,3.5,46,0.00,CLR,,0.00,WeatherDisplay:10.37,2013-01-16 23:43:00,
2013-01-16 15:49:00,59.8,39.5,30.30,SSE,167,4.6,4.6,47,0.00,CLR,,0.00,WeatherDisplay:10.37,2013-01-16 23:49:00,
2013-01-16 15:54:00,59.6,39.9,30.30,SSE,150,5.8,5.8,48,0.00,CLR,,0.00,WeatherDisplay:10.37,2013-01-16 23:54:00,
2013-01-16 15:59:00,59.3,39.6,30.30,ESE,113,5.8,5.8,48,0.00,CLR,,0.00,WeatherDisplay:10.37,2013-01-16 23:59:00,
2013-01-16 16:05:00,59.0,39.9,30.30,SE,146,3.5,3.5,49,0.00,CLR,,0.00,WeatherDisplay:10.37,2013-01-17 00:05:00,
2013-01-16 16:10:00,58.9,39.8,30.30,SSE,156,3.5,3.5,49,0.00,CLR,,0.00,WeatherDisplay:10.37,2013-01-17 00:10:00,
2013-01-16 16:15:00,58.7,40.1,30.30,SSE,156,3.5,3.5,50,0.00,CLR,,0.00,WeatherDisplay:10.37,2013-01-17 00:15:00,
2013-01-16 16:20:00,58.4,39.8,30.30,SE,146,3.5,3.5,50,0.00,CLR,,0.00,WeatherDisplay:10.37,2013-01-17 00:20:00,
2013-01-16 16:25:00,58.0,40.0,30.30,SE,138,2.3,2.3,51,0.00,CLR,,0.00,WeatherDisplay:10.37,2013-01-17 00:25:00,
2013-01-16 16:30:00,57.6,39.6,30.30,SSE,151,3.5,3.5,51,0.00,CLR,,0.00,WeatherDisplay:10.37,2013-01-17 00:30:00,
2013-01-16 16:35:00,57.5,39.5,30.30,South,170,5.0,5.0,51,0.00,CLR,,0.00,WeatherDisplay:10.37,2013-01-17 00:35:00,
2013-01-16 16:40:00,57.2,39.2,30.30,SE,142,4.6,4.6,51,0.00,CLR,,0.00,WeatherDisplay:10.37,2013-01-17 00:40:00,
2013-01-16 16:45:00,56.3,38.9,30.30,SE,139,2.3,2.3,52,0.00,CLR,,0.00,WeatherDisplay:10.37,2013-01-17 00:45:00,
2013-01-16 16:50:00,55.6,39.2,30.30,SE,138,1.1,1.1,54,0.00,CLR,,0.00,WeatherDisplay:10.37,2013-01-17 00:50:00,
2013-01-16 16:55:00,54.6,38.7,30.30,ESE,118,0.0,0.0,55,0.00,CLR,,0.00,WeatherDisplay:10.37,2013-01-17 00:55:00,
2013-01-16 17:00:00,53.9,38.6,30.30,SSE,154,1.1,0.0,56,0.00,CLR,,0.00,WeatherDisplay:10.37,2013-01-17 01:00:00,
2013-01-16 17:06:00,53.4,38.5,30.30,SSE,155,0.0,0.0,57,0.00,CLR,,0.00,WeatherDisplay:10.37,2013-01-17 01:06:00,
2013-01-16 17:11:00,52.9,38.5,30.30,SSE,155,0.0,0.0,58,0.00,CLR,,0.00,WeatherDisplay:10.37,2013-01-17 01:11:00,
2013-01-16 17:16:00,52.5,38.6,30.30,SSE,152,0.0,0.0,59,0.00,CLR,,0.00,WeatherDisplay:10.37,2013-01-17 01:16:00,
2013-01-16 17:21:00,52.1,38.2,30.30,SSE,152,0.0,0.0,59,0.00,CLR,,0.00,WeatherDisplay:10.37,2013-01-17 01:21:00,
2013-01-16 17:26:00,51.7,38.7,30.30,SSE,152,0.0,0.0,61,0.00,CLR,,0.00,WeatherDisplay:10.37,2013-01-17 01:26:00,
2013-01-16 17:31:00,51.2,38.6,30.30,SSE,152,0.0,0.0,62,0.00,CLR,,0.00,WeatherDisplay:10.37,2013-01-17 01:31:00,
2013-01-16 17:36:00,50.6,38.1,30.30,SSE,158,0.0,0.0,62,0.00,CLR,,0.00,WeatherDisplay:10.37,2013-01-17 01:36:00,
2013-01-16 17:41:00,50.4,38.3,30.30,SSE,160,0.0,0.0,63,0.00,CLR,,0.00,WeatherDisplay:10.37,2013-01-17 01:41:00,
2013-01-16 17:47:00,49.6,38.7,30.30,SSE,160,0.0,0.0,66,0.00,CLR,,0.00,WeatherDisplay:10.37,2013-01-17 01:47:00,
2013-01-16 17:52:00,48.9,38.8,30.30,South,190,0.0,0.0,68,0.00,CLR,,0.00,WeatherDisplay:10.37,2013-01-17 01:52:00,
2013-01-16 17:57:00,48.1,38.8,30.30,SW,236,0.0,0.0,70,0.00,CLR,,0.00,WeatherDisplay:10.37,2013-01-17 01:57:00,
2013-01-16 18:02:00,47.4,38.8,30.30,WSW,240,1.0,1.0,72,0.00,CLR,,0.00,WeatherDisplay:10.37,2013-01-17 02:02:00,
2013-01-16 18:07:00,46.9,38.7,30.30,WSW,243,1.1,1.1,73,0.00,CLR,,0.00,WeatherDisplay:10.37,2013-01-17 02:07:00,
2013-01-16 18:12:00,46.5,38.7,30.30,SW,233,1.1,1.1,74,0.00,CLR,,0.00,WeatherDisplay:10.37,2013-01-17 02:12:00,
2013-01-16 18:17:00,46.2,38.7,30.30,SW,233,1.1,1.1,75,0.00,CLR,,0.00,WeatherDisplay:10.37,2013-01-17 02:17:00,
2013-01-16 18:22:00,45.9,38.4,30.30,SW,233,1.1,1.1,75,0.00,CLR,,0.00,WeatherDisplay:10.37,2013-01-17 02:22:00,
2013-01-16 18:28:00,45.4,38.3,30.30,SW,233,0.0,0.0,76,0.00,CLR,,0.00,WeatherDisplay:10.37,2013-01-17 02:28:00,
2013-01-16 18:33:00,45.0,37.9,30.30,SW,233,1.1,0.0,76,0.00,CLR,,0.00,WeatherDisplay:10.37,2013-01-17 02:33:00,
2013-01-16 18:38:00,44.5,37.7,30.30,SW,235,1.1,1.1,77,0.00,CLR,,0.00,WeatherDisplay:10.37,2013-01-17 02:38:00,
2013-01-16 18:43:00,44.1,37.7,30.30,WSW,242,1.1,1.1,78,0.00,CLR,,0.00,WeatherDisplay:10.37,2013-01-17 02:43:00,
2013-01-16 18:48:00,43.7,37.6,30.30,WSW,242,0.0,0.0,79,0.00,CLR,,0.00,WeatherDisplay:10.37,2013-01-17 02:48:00,
2013-01-16 18:54:00,43.4,37.3,30.30,WSW,241,0.0,0.0,79,0.00,CLR,,0.00,WeatherDisplay:10.37,2013-01-17 02:54:00,
2013-01-16 18:59:00,42.7,37.0,30.30,WSW,242,0.0,0.0,80,0.00,CLR,,0.00,WeatherDisplay:10.37,2013-01-17 02:59:00,
2013-01-16 19:04:00,41.8,36.4,30.30,WSW,242,0.0,0.0,81,0.00,CLR,,0.00,WeatherDisplay:10.37,2013-01-17 03:04:00,
2013-01-16 19:09:00,41.4,36.3,30.30,WSW,242,0.0,0.0,82,0.00,CLR,,0.00,WeatherDisplay:10.37,2013-01-17 03:09:00,
2013-01-16 19:14:00,41.2,36.7,30.30,NW,311,1.1,1.1,84,0.00,CLR,,0.00,WeatherDisplay:10.37,2013-01-17 03:14:00,
2013-01-16 19:19:00,41.5,37.3,30.30,NW,311,0.0,0.0,85,0.00,CLR,,0.00,WeatherDisplay:10.37,2013-01-17 03:19:00,
2013-01-16 19:25:00,41.6,37.1,30.30,NW,311,1.0,1.0,84,0.00,CLR,,0.00,WeatherDisplay:10.37,2013-01-17 03:25:00,
2013-01-16 19:30:00,41.5,37.0,30.30,NW,314,1.1,1.1,84,0.00,CLR,,0.00,WeatherDisplay:10.37,2013-01-17 03:30:00,
2013-01-16 19:35:00,41.2,36.7,30.30,NW,314,0.0,0.0,84,0.00,CLR,,0.00,WeatherDisplay:10.37,2013-01-17 03:35:00,
2013-01-16 19:40:00,40.5,36.3,30.30,NW,323,2.3,2.3,85,0.00,CLR,,0.00,WeatherDisplay:10.37,2013-01-17 03:40:00,
2013-01-16 19:45:00,40.3,36.4,30.30,NW,322,1.1,1.1,86,0.00,CLR,,0.00,WeatherDisplay:10.37,2013-01-17 03:45:00,
2013-01-16 19:50:00,40.6,37.0,30.30,NW,322,1.1,0.0,87,0.00,CLR,,0.00,WeatherDisplay:10.37,2013-01-17 03:50:00,
2013-01-16 19:55:00,40.7,36.8,30.30,NW,322,0.0,0.0,86,0.00,CLR,,0.00,WeatherDisplay:10.37,2013-01-17 03:55:00,
2013-01-16 20:00:00,40.6,37.0,30.30,NW,322,1.1,0.0,87,0.00,CLR,,0.00,WeatherDisplay:10.37,2013-01-17 04:00:00,
2013-01-16 20:05:00,40.3,36.1,30.30,NW,323,0.0,0.0,85,0.00,CLR,,0.00,WeatherDisplay:10.37,2013-01-17 04:05:00,
2013-01-16 20:11:00,39.7,35.9,30.30,NW,322,0.0,0.0,86,0.00,CLR,,0.00,WeatherDisplay:10.37,2013-01-17 04:11:00,
2013-01-16 20:16:00,39.2,35.7,30.30,NW,323,0.0,0.0,87,0.00,CLR,,0.00,WeatherDisplay:10.37,2013-01-17 04:16:00,
2013-01-16 20:21:00,38.8,35.6,30.30,NW,323,0.0,0.0,88,0.00,CLR,,0.00,WeatherDisplay:10.37,2013-01-17 04:21:00,
2013-01-16 20:26:00,39.0,36.0,30.30,NW,322,0.0,0.0,89,0.00,CLR,,0.00,WeatherDisplay:10.37,2013-01-17 04:26:00,
2013-01-16 20:31:00,38.8,35.6,30.30,NW,322,0.0,0.0,88,0.00,CLR,,0.00,WeatherDisplay:10.37,2013-01-17 04:31:00,
2013-01-16 20:37:00,38.6,35.6,30.30,NW,322,0.0,0.0,89,0.00,CLR,,0.00,WeatherDisplay:10.37,2013-01-17 04:37:00,
2013-01-16 20:42:00,38.3,35.1,30.30,NW,322,0.0,0.0,88,0.00,CLR,,0.00,WeatherDisplay:10.37,2013-01-17 04:42:00,
2013-01-16 20:47:00,37.7,34.8,30.30,NNW,330,2.0,2.0,89,0.00,CLR,,0.00,WeatherDisplay:10.37,2013-01-17 04:47:00,
2013-01-16 20:53:00,37.3,34.6,30.30,NNW,330,1.1,1.1,90,0.00,CLR,,0.00,WeatherDisplay:10.37,2013-01-17 04:53:00,
2013-01-16 20:58:00,37.4,34.7,30.30,NNW,330,1.1,1.1,90,0.00,CLR,,0.00,WeatherDisplay:10.37,2013-01-17 04:58:00,
2013-01-16 21:00:00,37.6,35.2,30.30,NNW,330,1.1,1.1,91,0.00,CLR,,0.00,WeatherDisplay:10.37,2013-01-17 05:00:00,
2013-01-16 21:02:00,37.8,35.4,30.30,NNW,330,0.0,0.1,91,0.00,CLR,,0.00,WeatherDisplay:10.37,2013-01-17 05:02:00,
2013-01-16 21:04:00,37.9,35.5,30.30,NNW,330,1.1,1.1,91,0.00,CLR,,0.00,WeatherDisplay:10.37,2013-01-17 05:04:00,
2013-01-16 21:05:00,38.0,35.6,30.30,NNW,330,1.1,1.1,91,0.00,CLR,,0.00,WeatherDisplay:10.37,2013-01-17 05:05:00,
2013-01-16 21:10:00,38.2,35.5,30.30,NNW,330,0.0,0.0,90,0.00,CLR,,0.00,WeatherDisplay:10.37,2013-01-17 05:10:00,
2013-01-16 21:16:00,37.7,34.8,30.30,NNW,330,0.0,0.0,89,0.00,CLR,,0.00,WeatherDisplay:10.37,2013-01-17 05:16:00,
2013-01-16 21:21:00,36.7,33.5,30.30,NNW,330,1.1,0.0,88,0.00,CLR,,0.00,WeatherDisplay:10.37,2013-01-17 05:21:00,
2013-01-16 21:26:00,36.2,33.5,30.30,NNW,330,1.1,1.1,90,0.00,CLR,,0.00,WeatherDisplay:10.37,2013-01-17 05:26:00,
2013-01-16 21:31:00,36.1,33.7,30.30,NNW,331,1.1,0.0,91,0.00,CLR,,0.00,WeatherDisplay:10.37,2013-01-17 05:31:00,
2013-01-16 21:36:00,36.4,34.3,30.30,NNW,331,0.0,0.0,92,0.00,CLR,,0.00,WeatherDisplay:10.37,2013-01-17 05:36:00,
2013-01-16 21:42:00,36.8,34.7,30.29,NNW,332,0.0,0.0,92,0.00,CLR,,0.00,WeatherDisplay:10.37,2013-01-17 05:42:00,
2013-01-16 21:47:00,36.8,34.4,30.29,NNW,331,0.0,0.0,91,0.00,CLR,,0.00,WeatherDisplay:10.37,2013-01-17 05:47:00,
2013-01-16 21:52:00,36.2,33.5,30.29,NNW,332,0.0,0.0,90,0.00,CLR,,0.00,WeatherDisplay:10.37,2013-01-17 05:52:00,
2013-01-16 21:57:00,35.7,33.1,30.29,NNW,331,0.0,0.0,90,0.00,CLR,,0.00,WeatherDisplay:10.37,2013-01-17 05:57:00,
2013-01-16 22:02:00,35.6,33.2,30.29,NE,52,1.1,1.1,91,0.00,CLR,,0.00,WeatherDisplay:10.37,2013-01-17 06:02:00,
2013-01-16 22:07:00,35.9,33.8,30.29,NE,52,1.1,0.0,92,0.00,CLR,,0.00,WeatherDisplay:10.37,2013-01-17 06:07:00,
2013-01-16 22:12:00,36.4,34.6,30.29,NE,52,0.0,0.2,93,0.00,CLR,,0.00,WeatherDisplay:10.37,2013-01-17 06:12:00,
2013-01-16 22:17:00,36.6,34.5,30.29,NE,53,1.1,1.1,92,0.00,CLR,,0.00,WeatherDisplay:10.37,2013-01-17 06:17:00,
2013-01-16 22:23:00,36.5,34.4,30.29,NE,53,0.0,0.0,92,0.00,CLR,,0.00,WeatherDisplay:10.37,2013-01-17 06:23:00,
2013-01-16 22:28:00,36.1,33.7,30.29,NE,53,0.0,0.0,91,0.00,CLR,,0.00,WeatherDisplay:10.37,2013-01-17 06:28:00,
2013-01-16 22:33:00,35.7,33.3,30.29,NE,52,0.0,0.0,91,0.00,CLR,,0.00,WeatherDisplay:10.37,2013-01-17 06:33:00,
2013-01-16 22:38:00,35.6,33.5,30.29,NE,53,0.0,0.0,92,0.00,CLR,,0.00,WeatherDisplay:10.37,2013-01-17 06:38:00,
2013-01-16 22:43:00,35.6,33.5,30.29,NE,52,0.0,0.0,92,0.00,CLR,,0.00,WeatherDisplay:10.37,2013-01-17 06:43:00,
2013-01-16 22:49:00,35.5,33.4,30.29,NE,52,0.0,0.0,92,0.00,CLR,,0.00,WeatherDisplay:10.37,2013-01-17 06:49:00,
2013-01-16 22:54:00,35.4,33.3,30.29,NE,53,1.1,1.1,92,0.00,CLR,,0.00,WeatherDisplay:10.37,2013-01-17 06:54:00,
2013-01-16 22:59:00,34.8,32.7,30.29,North,357,1.0,1.0,92,0.00,CLR,,0.00,WeatherDisplay:10.37,2013-01-17 06:59:00,
2013-01-16 23:04:00,34.3,32.2,30.29,North,349,1.1,1.1,92,0.00,CLR,,0.00,WeatherDisplay:10.37,2013-01-17 07:04:00,
2013-01-16 23:09:00,34.4,32.3,30.29,NNW,333,1.1,1.1,92,0.00,CLR,,0.00,WeatherDisplay:10.37,2013-01-17 07:09:00,
2013-01-16 23:14:00,34.7,32.9,30.29,NW,323,0.0,0.0,93,0.00,CLR,,0.00,WeatherDisplay:10.37,2013-01-17 07:14:00,
2013-01-16 23:19:00,34.7,32.9,30.29,NW,323,0.0,0.0,93,0.00,CLR,,0.00,WeatherDisplay:10.37,2013-01-17 07:19:00,
2013-01-16 23:24:00,34.8,33.0,30.29,NW,315,0.0,0.0,93,0.00,CLR,,0.00,WeatherDisplay:10.37,2013-01-17 07:24:00,
2013-01-16 23:29:00,34.9,33.1,30.29,NW,314,0.0,0.0,93,0.00,CLR,,0.00,WeatherDisplay:10.37,2013-01-17 07:29:00,
2013-01-16 23:34:00,33.7,31.4,30.28,NW,314,1.1,1.1,91,0.00,CLR,,0.00,WeatherDisplay:10.37,2013-01-17 07:34:00,
2013-01-16 23:39:00,33.3,31.2,30.28,NW,314,1.1,1.1,92,0.00,CLR,,0.00,WeatherDisplay:10.37,2013-01-17 07:39:00,
2013-01-16 23:44:00,33.2,31.1,30.29,NW,315,1.1,1.1,92,0.00,CLR,,0.00,WeatherDisplay:10.37,2013-01-17 07:44:00,
2013-01-16 23:49:00,33.3,31.5,30.28,NNW,347,1.1,1.1,93,0.00,CLR,,0.00,WeatherDisplay:10.37,2013-01-17 07:49:00,
2013-01-16 23:55:00,33.5,31.7,30.29,NNW,347,0.0,0.0,93,0.00,CLR,,0.00,WeatherDisplay:10.37,2013-01-17 07:55:00,